Time,TemperatureF,DewpointF,PressureIn,WindDirection,WindDirectionDegrees,WindSpeedMPH,WindSpeedGustMPH,Humidity,HourlyPrecipIn,Conditions,Clouds,dailyrainin,SolarRadiationWatts/m^2,SoftwareType,DateUTC
2013-05-30 00:14:00,72.4,71.0,30.03,East,100,4.0,-999.0,94,-99.99,,,0.00,0,weatherlink.com 1.10,2013-05-30 04:14:00,
2013-05-30 00:29:00,72.4,70.0,30.03,East,86,0.0,-999.0,93,-99.99,,,0.00,0,weatherlink.com 1.10,2013-05-30 04:29:00,
2013-05-30 00:44:00,72.3,71.0,30.03,East,87,0.0,-999.0,94,-99.99,,,0.00,0,weatherlink.com 1.10,2013-05-30 04:44:00,
2013-05-30 00:59:00,72.1,70.0,30.03,ENE,71,3.0,-999.0,94,-99.99,,,0.00,0,weatherlink.com 1.10,2013-05-30 04:59:00,
2013-05-30 01:14:00,71.9,70.0,30.02,East,80,1.0,-999.0,94,-99.99,,,0.00,0,weatherlink.com 1.10,2013-05-30 05:14:00,
2013-05-30 01:29:00,71.7,70.0,30.02,ENE,76,3.0,-999.0,94,-99.99,,,0.00,0,weatherlink.com 1.10,2013-05-30 05:29:00,
2013-05-30 01:44:00,71.6,70.0,30.02,East,86,3.0,-999.0,94,-99.99,,,0.00,0,weatherlink.com 1.10,2013-05-30 05:44:00,
2013-05-30 01:59:00,71.5,70.0,30.01,NE,41,0.0,-999.0,94,-99.99,,,0.00,0,weatherlink.com 1.10,2013-05-30 05:59:00,
2013-05-30 02:14:00,71.5,70.0,30.01,ENE,74,1.0,-999.0,94,-99.99,,,0.00,0,weatherlink.com 1.10,2013-05-30 06:14:00,
2013-05-30 02:29:00,71.3,70.0,30.01,East,80,1.0,-999.0,94,-99.99,,,0.00,0,weatherlink.com 1.10,2013-05-30 06:29:00,
2013-05-30 02:44:00,71.2,69.0,30.00,ENE,65,0.0,-999.0,94,-99.99,,,0.00,0,weatherlink.com 1.10,2013-05-30 06:44:00,
2013-05-30 02:59:00,71.1,69.0,30.01,East,82,0.0,-999.0,94,-99.99,,,0.00,0,weatherlink.com 1.10,2013-05-30 06:59:00,
2013-05-30 03:14:00,71.0,69.0,30.00,ESE,117,1.0,-999.0,94,-99.99,,,0.00,0,weatherlink.com 1.10,2013-05-30 07:14:00,
2013-05-30 03:29:00,71.0,69.0,30.00,NNE,26,1.0,-999.0,94,-99.99,,,0.00,0,weatherlink.com 1.10,2013-05-30 07:29:00,
2013-05-30 03:44:00,70.9,70.0,30.00,ENE,75,0.0,-999.0,95,-99.99,,,0.00,0,weatherlink.com 1.10,2013-05-30 07:44:00,
2013-05-30 03:59:00,70.9,70.0,30.00,NE,36,1.0,-999.0,95,-99.99,,,0.00,0,weatherlink.com 1.10,2013-05-30 07:59:00,
2013-05-30 04:14:00,70.9,70.0,30.00,East,95,0.0,-999.0,95,-99.99,,,0.00,0,weatherlink.com 1.10,2013-05-30 08:14:00,
2013-05-30 04:29:00,70.9,70.0,30.00,ESE,107,0.0,-999.0,95,-99.99,,,0.00,0,weatherlink.com 1.10,2013-05-30 08:29:00,
2013-05-30 04:45:00,70.8,69.0,30.00,ESE,103,1.0,-999.0,95,-99.99,,,0.00,0,weatherlink.com 1.10,2013-05-30 08:45:00,
2013-05-30 04:59:00,70.8,69.0,30.00,ENE,78,0.0,-999.0,95,-99.99,,,0.00,0,weatherlink.com 1.10,2013-05-30 08:59:00,
2013-05-30 05:15:00,70.7,69.0,29.99,East,88,0.0,-999.0,95,-99.99,,,0.00,0,weatherlink.com 1.10,2013-05-30 09:15:00,
2013-05-30 05:29:00,70.7,69.0,30.00,East,90,0.0,-999.0,95,-99.99,,,0.00,0,weatherlink.com 1.10,2013-05-30 09:29:00,
2013-05-30 05:44:00,70.7,69.0,29.99,ENE,66,1.0,-999.0,95,-99.99,,,0.00,0,weatherlink.com 1.10,2013-05-30 09:44:00,
2013-05-30 05:59:00,70.7,69.0,30.00,East,84,0.0,-999.0,95,-99.99,,,0.00,0,weatherlink.com 1.10,2013-05-30 09:59:00,
2013-05-30 06:15:00,70.7,69.0,30.00,East,94,0.0,-999.0,94,-99.99,,,0.00,0,weatherlink.com 1.10,2013-05-30 10:15:00,
2013-05-30 06:29:00,70.7,69.0,30.00,SE,137,2.0,-999.0,95,-99.99,,,0.00,0,weatherlink.com 1.10,2013-05-30 10:29:00,
2013-05-30 06:44:00,70.8,69.0,30.00,East,89,2.0,-999.0,95,-99.99,,,0.00,11,weatherlink.com 1.10,2013-05-30 10:44:00,
2013-05-30 07:00:00,70.9,70.0,30.00,East,83,2.0,-999.0,95,-99.99,,,0.00,25,weatherlink.com 1.10,2013-05-30 11:00:00,
2013-05-30 07:14:00,71.5,70.0,30.01,East,86,3.0,-999.0,94,-99.99,,,0.00,62,weatherlink.com 1.10,2013-05-30 11:14:00,
2013-05-30 07:30:00,72.4,70.0,30.01,ENE,62,1.0,-999.0,93,-99.99,,,0.00,104,weatherlink.com 1.10,2013-05-30 11:30:00,
2013-05-30 07:45:00,73.7,71.0,30.02,East,92,0.0,-999.0,91,-99.99,,,0.00,165,weatherlink.com 1.10,2013-05-30 11:45:00,
2013-05-30 07:59:00,75.1,72.0,30.02,East,86,5.0,-999.0,89,-99.99,,,0.00,211,weatherlink.com 1.10,2013-05-30 11:59:00,
2013-05-30 08:15:00,76.6,73.0,30.03,ESE,117,4.0,-999.0,87,-99.99,,,0.00,258,weatherlink.com 1.10,2013-05-30 12:15:00,
2013-05-30 08:29:00,78.2,73.0,30.03,ESE,108,2.0,-999.0,85,-99.99,,,0.00,313,weatherlink.com 1.10,2013-05-30 12:29:00,
2013-05-30 08:44:00,79.3,74.0,30.03,ENE,73,3.0,-999.0,83,-99.99,,,0.00,371,weatherlink.com 1.10,2013-05-30 12:44:00,
2013-05-30 08:59:00,80.0,74.0,30.04,ESE,107,1.0,-999.0,82,-99.99,,,0.00,359,weatherlink.com 1.10,2013-05-30 12:59:00,
2013-05-30 09:14:00,81.3,75.0,30.04,ESE,116,4.0,-999.0,80,-99.99,,,0.00,585,weatherlink.com 1.10,2013-05-30 13:14:00,
2013-05-30 09:29:00,82.2,75.0,30.03,NNE,29,4.0,-999.0,78,-99.99,,,0.00,281,weatherlink.com 1.10,2013-05-30 13:29:00,
2013-05-30 09:44:00,82.2,75.0,30.04,ESE,113,2.0,-999.0,79,-99.99,,,0.00,663,weatherlink.com 1.10,2013-05-30 13:44:00,
2013-05-30 09:59:00,82.3,74.0,30.03,ENE,61,0.0,-999.0,77,-99.99,,,0.00,302,weatherlink.com 1.10,2013-05-30 13:59:00,
2013-05-30 10:14:00,82.5,75.0,30.03,SE,130,4.0,-999.0,79,-99.99,,,0.00,503,weatherlink.com 1.10,2013-05-30 14:14:00,
2013-05-30 10:29:00,82.6,75.0,30.02,East,96,1.0,-999.0,78,-99.99,,,0.00,596,weatherlink.com 1.10,2013-05-30 14:29:00,
2013-05-30 10:44:00,82.7,76.0,30.02,East,84,0.0,-999.0,79,-99.99,,,0.00,401,weatherlink.com 1.10,2013-05-30 14:44:00,
2013-05-30 10:59:00,82.5,75.0,30.02,East,90,0.0,-999.0,78,-99.99,,,0.00,297,weatherlink.com 1.10,2013-05-30 14:59:00,
2013-05-30 11:14:00,80.0,76.0,30.03,ESE,121,2.0,-999.0,86,-99.99,,,0.02,246,weatherlink.com 1.10,2013-05-30 15:14:00,
2013-05-30 11:29:00,80.0,76.0,30.03,ESE,109,1.0,-999.0,87,-99.99,,,0.02,339,weatherlink.com 1.10,2013-05-30 15:29:00,
2013-05-30 11:44:00,79.2,75.0,30.04,SE,139,5.0,-999.0,87,-99.99,,,0.02,195,weatherlink.com 1.10,2013-05-30 15:44:00,
2013-05-30 11:59:00,78.4,76.0,30.04,ESE,106,0.0,-999.0,91,-99.99,,,0.04,462,weatherlink.com 1.10,2013-05-30 15:59:00,
2013-05-30 12:14:00,79.9,77.0,30.03,SE,135,2.0,-999.0,91,-99.99,,,0.04,754,weatherlink.com 1.10,2013-05-30 16:14:00,
2013-05-30 12:29:00,80.4,75.0,30.02,SE,140,5.0,-999.0,84,-99.99,,,0.04,181,weatherlink.com 1.10,2013-05-30 16:29:00,
2013-05-30 12:44:00,81.0,78.0,30.02,SE,138,0.0,-999.0,90,-99.99,,,0.05,1034,weatherlink.com 1.10,2013-05-30 16:44:00,
2013-05-30 12:59:00,82.7,77.0,30.02,ESE,107,5.0,-999.0,83,-99.99,,,0.05,1185,weatherlink.com 1.10,2013-05-30 16:59:00,
2013-05-30 13:14:00,81.9,75.0,30.02,ESE,115,1.0,-999.0,79,-99.99,,,0.05,197,weatherlink.com 1.10,2013-05-30 17:14:00,
2013-05-30 13:29:00,81.2,76.0,30.02,ESE,119,1.0,-999.0,84,-99.99,,,0.05,468,weatherlink.com 1.10,2013-05-30 17:29:00,
2013-05-30 13:44:00,83.2,76.0,30.01,SE,137,2.0,-999.0,79,-99.99,,,0.05,645,weatherlink.com 1.10,2013-05-30 17:44:00,
2013-05-30 13:59:00,85.5,76.0,30.00,SSE,165,0.0,-999.0,73,-99.99,,,0.05,919,weatherlink.com 1.10,2013-05-30 17:59:00,
2013-05-30 14:14:00,87.0,77.0,30.00,ENE,78,6.0,-999.0,71,-99.99,,,0.05,295,weatherlink.com 1.10,2013-05-30 18:14:00,
2013-05-30 14:29:00,84.6,76.0,29.99,SE,140,2.0,-999.0,74,-99.99,,,0.05,292,weatherlink.com 1.10,2013-05-30 18:29:00,
2013-05-30 14:44:00,85.1,77.0,29.99,SE,140,0.0,-999.0,76,-99.99,,,0.05,295,weatherlink.com 1.10,2013-05-30 18:44:00,
2013-05-30 14:59:00,85.2,77.0,29.98,SE,130,2.0,-999.0,75,-99.99,,,0.05,309,weatherlink.com 1.10,2013-05-30 18:59:00,
2013-05-30 15:14:00,84.5,76.0,29.98,ESE,104,0.0,-999.0,76,-99.99,,,0.05,174,weatherlink.com 1.10,2013-05-30 19:14:00,
2013-05-30 15:29:00,85.4,77.0,29.97,SSE,158,2.0,-999.0,75,-99.99,,,0.05,983,weatherlink.com 1.10,2013-05-30 19:29:00,
2013-05-30 15:44:00,86.1,77.0,29.97,SE,145,1.0,-999.0,73,-99.99,,,0.05,322,weatherlink.com 1.10,2013-05-30 19:44:00,
2013-05-30 15:59:00,84.9,77.0,29.97,ESE,117,0.0,-999.0,77,-99.99,,,0.05,403,weatherlink.com 1.10,2013-05-30 19:59:00,
2013-05-30 16:14:00,84.2,76.0,29.96,ESE,121,0.0,-999.0,76,-99.99,,,0.05,172,weatherlink.com 1.10,2013-05-30 20:14:00,
2013-05-30 16:29:00,83.2,76.0,29.96,SSE,160,1.0,-999.0,79,-99.99,,,0.05,269,weatherlink.com 1.10,2013-05-30 20:29:00,
2013-05-30 16:44:00,85.7,77.0,29.96,SSE,150,2.0,-999.0,75,-99.99,,,0.05,279,weatherlink.com 1.10,2013-05-30 20:44:00,
2013-05-30 16:59:00,83.5,77.0,29.96,SSW,192,0.0,-999.0,80,-99.99,,,0.06,151,weatherlink.com 1.10,2013-05-30 20:59:00,
2013-05-30 17:14:00,81.4,78.0,29.96,SE,128,0.0,-999.0,88,-99.99,,,0.06,554,weatherlink.com 1.10,2013-05-30 21:14:00,
2013-05-30 17:29:00,82.8,77.0,29.95,SE,130,0.0,-999.0,82,-99.99,,,0.06,422,weatherlink.com 1.10,2013-05-30 21:29:00,
2013-05-30 17:44:00,83.5,77.0,29.96,ESE,111,0.0,-999.0,80,-99.99,,,0.06,508,weatherlink.com 1.10,2013-05-30 21:44:00,
2013-05-30 17:59:00,83.8,76.0,29.96,South,176,0.0,-999.0,78,-99.99,,,0.06,199,weatherlink.com 1.10,2013-05-30 21:59:00,
2013-05-30 18:14:00,85.0,77.0,29.95,ESE,123,0.0,-999.0,76,-99.99,,,0.06,420,weatherlink.com 1.10,2013-05-30 22:14:00,
2013-05-30 18:29:00,83.4,75.0,29.96,SSE,160,1.0,-999.0,76,-99.99,,,0.06,32,weatherlink.com 1.10,2013-05-30 22:29:00,
2013-05-30 18:44:00,81.1,75.0,29.96,SE,128,1.0,-999.0,82,-99.99,,,0.06,65,weatherlink.com 1.10,2013-05-30 22:44:00,
2013-05-30 19:14:00,79.8,75.0,29.98,ESE,108,7.0,-999.0,84,-99.99,,,0.06,18,weatherlink.com 1.10,2013-05-30 23:14:00,
2013-05-30 19:29:00,79.1,75.0,29.98,East,80,0.0,-999.0,87,-99.99,,,0.08,9,weatherlink.com 1.10,2013-05-30 23:29:00,
2013-05-30 19:45:00,77.6,75.0,29.98,SE,145,2.0,-999.0,91,-99.99,,,0.13,12,weatherlink.com 1.10,2013-05-30 23:45:00,
2013-05-30 19:59:00,76.7,74.0,29.99,ESE,107,1.0,-999.0,92,-99.99,,,0.16,0,weatherlink.com 1.10,2013-05-30 23:59:00,
2013-05-30 20:14:00,75.6,74.0,30.00,SSE,161,6.0,-999.0,93,-99.99,,,0.40,0,weatherlink.com 1.10,2013-05-31 00:14:00,
2013-05-30 20:29:00,74.9,73.0,30.00,SSE,150,4.0,-999.0,95,-99.99,,,0.44,0,weatherlink.com 1.10,2013-05-31 00:29:00,
2013-05-30 20:44:00,74.8,73.0,30.00,ESE,119,1.0,-999.0,95,-99.99,,,0.44,0,weatherlink.com 1.10,2013-05-31 00:44:00,
2013-05-30 20:59:00,74.6,73.0,30.01,ESE,116,5.0,-999.0,95,-99.99,,,0.45,0,weatherlink.com 1.10,2013-05-31 00:59:00,
2013-05-30 21:14:00,74.4,73.0,30.01,South,175,6.0,-999.0,96,-99.99,,,0.45,0,weatherlink.com 1.10,2013-05-31 01:14:00,
2013-05-30 21:29:00,74.2,73.0,30.01,ESE,121,5.0,-999.0,95,-99.99,,,0.45,0,weatherlink.com 1.10,2013-05-31 01:29:00,
2013-05-30 21:44:00,74.0,73.0,30.02,East,80,2.0,-999.0,95,-99.99,,,0.45,0,weatherlink.com 1.10,2013-05-31 01:44:00,
2013-05-30 21:59:00,74.0,73.0,30.02,ESE,121,5.0,-999.0,95,-99.99,,,0.45,0,weatherlink.com 1.10,2013-05-31 01:59:00,
2013-05-30 22:14:00,73.9,72.0,30.03,East,98,4.0,-999.0,95,-99.99,,,0.45,0,weatherlink.com 1.10,2013-05-31 02:14:00,
2013-05-30 22:29:00,74.0,73.0,30.03,East,98,6.0,-999.0,95,-99.99,,,0.45,0,weatherlink.com 1.10,2013-05-31 02:29:00,
2013-05-30 22:44:00,74.1,73.0,30.04,East,86,0.0,-999.0,95,-99.99,,,0.45,0,weatherlink.com 1.10,2013-05-31 02:44:00,
2013-05-30 22:59:00,74.1,73.0,30.04,East,95,0.0,-999.0,95,-99.99,,,0.46,0,weatherlink.com 1.10,2013-05-31 02:59:00,
2013-05-30 23:14:00,74.0,73.0,30.05,SE,132,1.0,-999.0,95,-99.99,,,0.46,0,weatherlink.com 1.10,2013-05-31 03:14:00,
2013-05-30 23:29:00,73.9,72.0,30.04,ESE,117,1.0,-999.0,95,-99.99,,,0.46,0,weatherlink.com 1.10,2013-05-31 03:29:00,
2013-05-30 23:44:00,73.7,73.0,30.05,ESE,121,0.0,-999.0,96,-99.99,,,0.46,0,weatherlink.com 1.10,2013-05-31 03:44:00,
2013-05-30 23:59:00,73.7,73.0,30.04,ESE,114,0.0,-999.0,96,-99.99,,,0.46,0,weatherlink.com 1.10,2013-05-31 03:59:00,